カタログに戻る

STARLINK-34322

運用中通信VLEO
NORAD 64702·PAYLOAD·🇺🇸 United States

打ち上げ Jun 28, 2025 から Vandenberg Space Force Base

Loading…

次のパス (今後24時間)

TLE

最新Source: CelesTrak SupGP

元期: Sep 15, 2026, 03:12 UTC

1 64702C 25142G   26258.13381944 -.00047248  00000+0 -16438-2 0  2587
2 64702  70.0012 195.2471 0003000 271.5774 171.1123 15.29599212    18

AllMySatでSTARLINK-34322をリアルタイム追跡

Download on the App Store